Time,TemperatureF,DewpointF,PressureIn,WindDirection,WindDirectionDegrees,WindSpeedMPH,WindSpeedGustMPH,Humidity,HourlyPrecipIn,Conditions,Clouds,dailyrainin,SoftwareType,DateUTC
2013-03-06 00:04:00,47.8,40.6,30.00,South,180,0.0,0.0,76,0.00,CLR,,0.00,WeatherDisplay:10.37,2013-03-06 08:04:00,
2013-03-06 00:09:00,47.6,40.1,30.01,South,179,0.0,0.0,75,0.00,CLR,,0.00,WeatherDisplay:10.37,2013-03-06 08:09:00,
2013-03-06 00:14:00,47.6,40.4,30.01,South,180,0.0,0.0,76,0.00,CLR,,0.00,WeatherDisplay:10.37,2013-03-06 08:14:00,
2013-03-06 00:19:00,47.6,40.4,30.01,South,181,0.0,0.0,76,0.00,CLR,,0.00,WeatherDisplay:10.37,2013-03-06 08:19:00,
2013-03-06 00:24:00,47.4,40.2,30.02,South,179,0.0,0.0,76,0.00,CLR,,0.00,WeatherDisplay:10.37,2013-03-06 08:24:00,
2013-03-06 00:29:00,47.3,40.5,30.01,South,180,0.0,0.0,77,0.00,CLR,,0.00,WeatherDisplay:10.37,2013-03-06 08:29:00,
2013-03-06 00:34:00,47.2,40.4,30.02,South,181,0.0,0.0,77,0.00,CLR,,0.00,WeatherDisplay:10.37,2013-03-06 08:34:00,
2013-03-06 00:39:00,47.3,40.5,30.02,South,179,0.0,0.0,77,0.00,CLR,,0.00,WeatherDisplay:10.37,2013-03-06 08:39:00,
2013-03-06 00:44:00,47.3,40.5,30.03,South,180,0.0,0.0,77,0.00,CLR,,0.00,WeatherDisplay:10.37,2013-03-06 08:44:00,
2013-03-06 00:49:00,47.2,40.4,30.03,South,179,0.0,0.0,77,0.00,CLR,,0.00,WeatherDisplay:10.37,2013-03-06 08:49:00,
2013-03-06 00:54:00,47.0,40.5,30.03,South,179,0.0,0.0,78,0.00,CLR,,0.00,WeatherDisplay:10.37,2013-03-06 08:54:00,
2013-03-06 00:59:00,46.9,40.4,30.03,South,180,0.0,0.0,78,0.00,CLR,,0.00,WeatherDisplay:10.37,2013-03-06 08:59:00,
2013-03-06 01:04:00,46.9,40.4,30.03,South,180,0.0,0.0,78,0.00,CLR,,0.00,WeatherDisplay:10.37,2013-03-06 09:04:00,
2013-03-06 01:09:00,46.7,40.2,30.03,South,181,0.0,0.0,78,0.00,CLR,,0.00,WeatherDisplay:10.37,2013-03-06 09:09:00,
2013-03-06 01:14:00,46.5,40.0,30.04,South,181,0.0,0.0,78,0.00,CLR,,0.00,WeatherDisplay:10.37,2013-03-06 09:14:00,
2013-03-06 01:19:00,46.3,40.1,30.04,South,179,0.0,0.0,79,0.00,CLR,,0.00,WeatherDisplay:10.37,2013-03-06 09:19:00,
2013-03-06 01:24:00,46.7,40.5,30.04,South,179,0.0,0.0,79,0.00,CLR,,0.00,WeatherDisplay:10.37,2013-03-06 09:24:00,
2013-03-06 01:29:00,47.0,40.5,30.04,South,179,0.0,0.0,78,0.00,CLR,,0.00,WeatherDisplay:10.37,2013-03-06 09:29:00,
2013-03-06 01:34:00,47.1,40.6,30.04,South,179,0.0,0.0,78,0.00,CLR,,0.00,WeatherDisplay:10.37,2013-03-06 09:34:00,
2013-03-06 01:39:00,47.3,40.8,30.04,SSE,165,0.0,0.0,78,0.00,CLR,,0.00,WeatherDisplay:10.37,2013-03-06 09:39:00,
2013-03-06 01:44:00,47.4,40.6,30.04,SSE,165,0.0,0.0,77,0.00,CLR,,0.00,WeatherDisplay:10.37,2013-03-06 09:44:00,
2013-03-06 01:49:00,47.5,40.3,30.04,SSE,165,0.0,0.0,76,0.00,CLR,,0.00,WeatherDisplay:10.37,2013-03-06 09:49:00,
2013-03-06 01:54:00,47.5,40.6,30.04,SSE,163,0.0,0.0,77,0.00,CLR,,0.00,WeatherDisplay:10.37,2013-03-06 09:54:00,
2013-03-06 01:59:00,47.5,40.6,30.04,SSE,163,0.0,0.0,77,0.00,CLR,,0.00,WeatherDisplay:10.37,2013-03-06 09:59:00,
2013-03-06 02:04:00,47.5,40.6,30.04,ESE,117,1.2,1.2,77,0.00,CLR,,0.00,WeatherDisplay:10.37,2013-03-06 10:04:00,
2013-03-06 02:09:00,47.6,40.4,30.04,ESE,120,0.0,0.0,76,0.00,CLR,,0.00,WeatherDisplay:10.37,2013-03-06 10:09:00,
2013-03-06 02:14:00,47.5,40.3,30.04,ESE,120,0.0,0.0,76,0.00,CLR,,0.00,WeatherDisplay:10.37,2013-03-06 10:14:00,
2013-03-06 02:19:00,47.2,40.0,30.04,ESE,120,0.0,0.0,76,0.00,CLR,,0.00,WeatherDisplay:10.37,2013-03-06 10:19:00,
2013-03-06 02:24:00,47.0,40.2,30.04,ESE,120,0.0,0.0,77,0.00,CLR,,0.00,WeatherDisplay:10.37,2013-03-06 10:24:00,
2013-03-06 02:29:00,46.9,40.1,30.04,ESE,120,0.0,0.0,77,0.00,CLR,,0.00,WeatherDisplay:10.37,2013-03-06 10:29:00,
2013-03-06 02:34:00,46.8,40.0,30.04,ESE,120,0.0,0.0,77,0.00,CLR,,0.00,WeatherDisplay:10.37,2013-03-06 10:34:00,
2013-03-06 02:39:00,46.8,40.0,30.04,ESE,120,0.0,0.0,77,0.00,CLR,,0.00,WeatherDisplay:10.37,2013-03-06 10:39:00,
2013-03-06 02:44:00,46.6,39.8,30.04,ESE,119,0.0,0.0,77,0.00,CLR,,0.00,WeatherDisplay:10.37,2013-03-06 10:44:00,
2013-03-06 02:49:00,46.4,39.6,30.04,ESE,120,0.0,0.0,77,0.00,CLR,,0.00,WeatherDisplay:10.37,2013-03-06 10:49:00,
2013-03-06 02:54:00,46.2,39.7,30.03,ESE,120,0.0,0.0,78,0.00,CLR,,0.00,WeatherDisplay:10.37,2013-03-06 10:54:00,
2013-03-06 02:59:00,45.9,39.4,30.03,ESE,120,0.0,0.0,78,0.00,CLR,,0.00,WeatherDisplay:10.37,2013-03-06 10:59:00,
2013-03-06 03:04:00,45.7,39.6,30.03,ESE,120,0.0,0.0,79,0.00,CLR,,0.00,WeatherDisplay:10.37,2013-03-06 11:04:00,
2013-03-06 03:09:00,45.5,39.4,30.03,ESE,120,0.0,0.0,79,0.00,CLR,,0.00,WeatherDisplay:10.37,2013-03-06 11:09:00,
2013-03-06 03:14:00,45.5,40.0,30.03,ESE,120,0.0,0.0,81,0.00,CLR,,0.00,WeatherDisplay:10.37,2013-03-06 11:14:00,
2013-03-06 03:19:00,45.6,40.1,30.03,ESE,120,0.0,0.0,81,0.00,CLR,,0.00,WeatherDisplay:10.37,2013-03-06 11:19:00,
2013-03-06 03:24:00,45.8,40.3,30.04,ESE,120,0.0,0.0,81,0.00,CLR,,0.00,WeatherDisplay:10.37,2013-03-06 11:24:00,
2013-03-06 03:29:00,45.9,40.1,30.03,ESE,120,0.0,0.0,80,0.00,CLR,,0.00,WeatherDisplay:10.37,2013-03-06 11:29:00,
2013-03-06 03:34:00,46.2,40.4,30.03,ESE,120,0.0,0.0,80,0.00,BKN,,0.00,WeatherDisplay:10.37,2013-03-06 11:34:00,
2013-03-06 03:39:00,46.3,40.5,30.04,ESE,120,0.0,0.0,80,0.00,BKN,,0.00,WeatherDisplay:10.37,2013-03-06 11:39:00,
2013-03-06 03:44:00,46.6,40.8,30.03,ESE,120,0.0,0.0,80,0.00,BKN,,0.00,WeatherDisplay:10.37,2013-03-06 11:44:00,
2013-03-06 03:49:00,46.9,41.1,30.04,ESE,120,0.0,0.0,80,0.00,OVC,,0.00,WeatherDisplay:10.37,2013-03-06 11:49:00,
2013-03-06 03:54:00,47.0,40.8,30.04,ESE,120,0.0,0.0,79,0.00,OVC,,0.00,WeatherDisplay:10.37,2013-03-06 11:54:00,
2013-03-06 03:59:00,47.1,40.9,30.04,ESE,120,0.0,0.0,79,0.00,OVC,,0.00,WeatherDisplay:10.37,2013-03-06 11:59:00,
2013-03-06 04:04:00,47.1,41.2,30.04,ESE,117,0.0,0.0,80,0.00,OVC,,0.00,WeatherDisplay:10.37,2013-03-06 12:04:00,
2013-03-06 04:09:00,47.2,41.3,30.04,NNW,328,1.2,1.2,80,0.00,OVC,,0.00,WeatherDisplay:10.37,2013-03-06 12:09:00,
2013-03-06 04:14:00,47.1,41.2,30.05,NNW,328,0.0,0.0,80,0.00,OVC,,0.00,WeatherDisplay:10.37,2013-03-06 12:14:00,
2013-03-06 04:19:00,47.1,40.9,30.05,West,278,0.0,0.0,79,0.00,OVC,,0.00,WeatherDisplay:10.37,2013-03-06 12:19:00,
2013-03-06 04:24:00,47.1,41.2,30.05,West,280,0.0,0.0,80,0.00,OVC,,0.00,WeatherDisplay:10.37,2013-03-06 12:24:00,
2013-03-06 04:29:00,47.1,40.9,30.05,WNW,303,0.0,0.0,79,0.00,OVC,,0.00,WeatherDisplay:10.37,2013-03-06 12:29:00,
2013-03-06 04:34:00,47.0,40.8,30.05,NW,304,0.0,0.0,79,0.00,OVC,,0.00,WeatherDisplay:10.37,2013-03-06 12:34:00,
2013-03-06 04:39:00,47.0,41.1,30.05,WNW,303,0.0,0.0,80,0.00,OVC,,0.00,WeatherDisplay:10.37,2013-03-06 12:39:00,
2013-03-06 04:44:00,47.1,41.2,30.06,NW,305,0.0,0.0,80,0.00,OVC,,0.00,WeatherDisplay:10.37,2013-03-06 12:44:00,
2013-03-06 04:49:00,47.2,41.3,30.06,NW,305,0.0,0.0,80,0.00,OVC,,0.00,WeatherDisplay:10.37,2013-03-06 12:49:00,
2013-03-06 04:54:00,47.2,41.7,30.06,NW,304,0.0,0.0,81,0.00,OVC,,0.00,WeatherDisplay:10.37,2013-03-06 12:54:00,
2013-03-06 04:59:00,47.3,41.8,30.06,ENE,67,0.0,0.0,81,0.00,OVC,,0.00,WeatherDisplay:10.37,2013-03-06 12:59:00,
2013-03-06 05:04:00,47.5,42.3,30.06,NE,56,1.2,0.0,82,0.00,OVC,,0.00,WeatherDisplay:10.37,2013-03-06 13:04:00,
2013-03-06 05:09:00,47.7,42.8,30.06,NE,45,0.0,0.0,83,0.00,OVC,,0.00,WeatherDisplay:10.37,2013-03-06 13:09:00,
2013-03-06 05:14:00,47.8,42.6,30.06,ENE,61,0.0,0.0,82,0.00,OVC,,0.00,WeatherDisplay:10.37,2013-03-06 13:14:00,
2013-03-06 05:19:00,48.0,42.8,30.06,ENE,73,0.0,0.0,82,0.00,OVC,,0.00,WeatherDisplay:10.37,2013-03-06 13:19:00,
2013-03-06 05:24:00,48.2,43.0,30.05,East,79,1.2,1.2,82,0.00,OVC,,0.00,WeatherDisplay:10.37,2013-03-06 13:24:00,
2013-03-06 05:29:00,48.3,43.4,30.05,ENE,78,1.2,1.2,83,0.00,OVC,,0.00,WeatherDisplay:10.37,2013-03-06 13:29:00,
2013-03-06 05:34:00,48.3,43.4,30.05,East,91,1.2,0.0,83,0.01,RA,,0.01,WeatherDisplay:10.37,2013-03-06 13:34:00,
2013-03-06 05:39:00,48.2,43.3,30.05,East,90,0.0,0.0,83,0.01,RA,,0.01,WeatherDisplay:10.37,2013-03-06 13:39:00,
2013-03-06 05:44:00,48.2,43.6,30.06,East,90,0.0,0.0,84,0.01,OVC,,0.01,WeatherDisplay:10.37,2013-03-06 13:44:00,
2013-03-06 05:49:00,48.1,43.5,30.06,East,91,0.0,0.0,84,0.01,OVC,,0.01,WeatherDisplay:10.37,2013-03-06 13:49:00,
2013-03-06 05:54:00,48.1,43.8,30.06,East,91,0.0,0.0,85,0.01,OVC,,0.01,WeatherDisplay:10.37,2013-03-06 13:54:00,
2013-03-06 05:59:00,48.1,43.8,30.06,East,90,0.0,0.1,85,0.01,OVC,,0.01,WeatherDisplay:10.37,2013-03-06 13:59:00,
2013-03-06 06:04:00,48.1,43.8,30.05,East,88,1.2,1.2,85,0.01,OVC,,0.01,WeatherDisplay:10.37,2013-03-06 14:04:00,
2013-03-06 06:09:00,48.1,43.8,30.05,East,101,3.5,3.5,85,0.01,OVC,,0.01,WeatherDisplay:10.37,2013-03-06 14:09:00,
2013-03-06 06:14:00,48.2,43.6,30.05,ENE,76,1.2,1.2,84,0.01,OVC,,0.01,WeatherDisplay:10.37,2013-03-06 14:14:00,
2013-03-06 06:19:00,48.2,43.6,30.05,SE,143,0.0,0.0,84,0.01,OVC,,0.01,WeatherDisplay:10.37,2013-03-06 14:19:00,
2013-03-06 06:24:00,48.5,43.3,30.04,ESE,105,4.6,4.6,82,0.01,OVC,,0.01,WeatherDisplay:10.37,2013-03-06 14:24:00,
2013-03-06 06:29:00,48.9,43.6,30.05,East,101,0.0,0.0,82,0.01,OVC,,0.01,WeatherDisplay:10.37,2013-03-06 14:29:00,
2013-03-06 06:34:00,48.9,43.6,30.05,ESE,102,0.0,0.0,82,0.00,OVC,,0.01,WeatherDisplay:10.37,2013-03-06 14:34:00,
2013-03-06 06:39:00,48.9,43.6,30.05,East,101,0.0,0.0,82,0.00,OVC,,0.01,WeatherDisplay:10.37,2013-03-06 14:39:00,
2013-03-06 06:44:00,49.0,44.1,30.05,East,101,0.0,0.1,83,0.00,OVC,,0.01,WeatherDisplay:10.37,2013-03-06 14:44:00,
2013-03-06 06:49:00,49.1,44.2,30.04,East,101,0.0,0.0,83,0.00,OVC,,0.01,WeatherDisplay:10.37,2013-03-06 14:49:00,
2013-03-06 06:54:00,49.2,44.3,30.05,East,101,0.0,0.0,83,0.00,OVC,,0.01,WeatherDisplay:10.37,2013-03-06 14:54:00,
2013-03-06 06:59:00,49.4,44.1,30.05,ESE,105,1.2,1.2,82,0.00,OVC,,0.01,WeatherDisplay:10.37,2013-03-06 14:59:00,
2013-03-06 07:04:00,49.5,43.9,30.05,ESE,105,0.0,0.0,81,0.00,OVC,,0.01,WeatherDisplay:10.37,2013-03-06 15:04:00,
2013-03-06 07:09:00,49.7,44.1,30.05,ESE,105,0.0,0.0,81,0.00,OVC,,0.01,WeatherDisplay:10.37,2013-03-06 15:09:00,
2013-03-06 07:14:00,49.9,44.3,30.05,ESE,105,0.0,0.0,81,0.00,OVC,,0.01,WeatherDisplay:10.37,2013-03-06 15:14:00,
2013-03-06 07:19:00,50.0,44.1,30.05,ESE,106,1.2,0.0,80,0.00,OVC,,0.01,WeatherDisplay:10.37,2013-03-06 15:19:00,
2013-03-06 07:24:00,50.3,44.7,30.05,ESE,114,0.0,0.1,81,0.00,OVC,,0.01,WeatherDisplay:10.37,2013-03-06 15:24:00,
2013-03-06 07:29:00,50.6,45.0,30.05,ESE,115,0.0,0.0,81,0.00,OVC,,0.01,WeatherDisplay:10.37,2013-03-06 15:29:00,
2013-03-06 07:34:00,50.8,44.9,30.05,ESE,115,0.0,0.0,80,0.00,OVC,,0.01,WeatherDisplay:10.37,2013-03-06 15:34:00,
2013-03-06 07:39:00,51.0,45.0,30.06,ESE,115,0.0,0.0,80,0.00,OVC,,0.01,WeatherDisplay:10.37,2013-03-06 15:39:00,
2013-03-06 07:46:00,51.4,44.8,30.06,SW,215,0.0,0.0,78,0.00,OVC,,0.01,WeatherDisplay:10.37,2013-03-06 15:46:00,
2013-03-06 07:51:00,51.8,45.8,30.06,SSW,204,0.0,0.0,80,0.00,OVC,,0.01,WeatherDisplay:10.37,2013-03-06 15:51:00,
2013-03-06 07:56:00,52.0,45.7,30.06,SE,145,0.0,0.0,79,0.00,OVC,,0.01,WeatherDisplay:10.37,2013-03-06 15:56:00,
2013-03-06 08:01:00,52.4,45.1,30.05,ESE,122,2.3,2.3,76,0.00,OVC,,0.01,WeatherDisplay:10.37,2013-03-06 16:01:00,
2013-03-06 08:06:00,53.0,46.0,30.06,East,100,1.2,1.2,77,0.00,OVC,,0.01,WeatherDisplay:10.37,2013-03-06 16:06:00,
2013-03-06 08:11:00,53.3,45.6,30.07,East,101,1.2,0.0,75,0.00,OVC,,0.01,WeatherDisplay:10.37,2013-03-06 16:11:00,
2013-03-06 08:16:00,53.7,46.3,30.07,ESE,102,0.0,0.0,76,0.00,OVC,,0.01,WeatherDisplay:10.37,2013-03-06 16:16:00,
2013-03-06 08:21:00,54.3,46.2,30.07,ESE,102,0.0,0.0,74,0.00,OVC,,0.01,WeatherDisplay:10.37,2013-03-06 16:21:00,
2013-03-06 08:26:00,54.8,46.3,30.07,East,101,0.0,0.0,73,0.00,OVC,,0.01,WeatherDisplay:10.37,2013-03-06 16:26:00,
2013-03-06 08:31:00,55.1,46.6,30.07,NW,305,2.3,2.3,73,0.00,OVC,,0.01,WeatherDisplay:10.37,2013-03-06 16:31:00,
2013-03-06 08:36:00,55.2,46.7,30.08,NW,305,0.0,0.0,73,0.00,OVC,,0.01,WeatherDisplay:10.37,2013-03-06 16:36:00,
2013-03-06 08:41:00,55.6,46.7,30.07,NW,305,0.0,0.0,72,0.00,OVC,,0.01,WeatherDisplay:10.37,2013-03-06 16:41:00,
2013-03-06 08:46:00,56.2,46.5,30.07,NW,305,0.0,0.0,70,0.00,OVC,,0.01,WeatherDisplay:10.37,2013-03-06 16:46:00,
2013-03-06 08:51:00,56.7,46.6,30.07,SSW,210,1.2,1.2,69,0.00,OVC,,0.01,WeatherDisplay:10.37,2013-03-06 16:51:00,
2013-03-06 08:56:00,57.0,46.5,30.07,SSW,201,1.2,1.2,68,0.00,OVC,,0.01,WeatherDisplay:10.37,2013-03-06 16:56:00,
2013-03-06 09:01:00,57.2,46.7,30.07,SW,218,1.2,1.2,68,0.00,OVC,,0.01,WeatherDisplay:10.37,2013-03-06 17:01:00,
2013-03-06 09:06:00,57.4,47.7,30.07,WNW,297,0.0,0.0,70,0.00,OVC,,0.01,WeatherDisplay:10.37,2013-03-06 17:06:00,
2013-03-06 09:11:00,57.6,47.1,30.07,WSW,240,1.2,0.0,68,0.00,OVC,,0.01,WeatherDisplay:10.37,2013-03-06 17:11:00,
2013-03-06 09:16:00,57.6,47.5,30.07,South,172,1.2,1.2,69,0.00,OVC,,0.01,WeatherDisplay:10.37,2013-03-06 17:16:00,
2013-03-06 09:21:00,57.6,47.9,30.08,WNW,283,3.5,3.5,70,0.00,OVC,,0.01,WeatherDisplay:10.37,2013-03-06 17:21:00,
2013-03-06 09:26:00,57.2,47.9,30.08,West,281,1.2,1.2,71,0.00,OVC,,0.01,WeatherDisplay:10.37,2013-03-06 17:26:00,
2013-03-06 09:31:00,57.2,48.3,30.08,NW,322,3.5,3.5,72,0.00,OVC,,0.01,WeatherDisplay:10.37,2013-03-06 17:31:00,
2013-03-06 09:36:00,56.9,48.3,30.08,WSW,257,2.3,2.3,73,0.00,OVC,,0.01,WeatherDisplay:10.37,2013-03-06 17:36:00,
2013-03-06 09:41:00,56.9,48.0,30.08,West,278,2.3,2.3,72,0.00,OVC,,0.01,WeatherDisplay:10.37,2013-03-06 17:41:00,
2013-03-06 09:46:00,56.9,48.0,30.08,North,6,2.3,2.3,72,0.00,OVC,,0.01,WeatherDisplay:10.37,2013-03-06 17:46:00,
2013-03-06 09:51:00,57.1,48.2,30.08,North,354,1.2,1.2,72,0.00,OVC,,0.01,WeatherDisplay:10.37,2013-03-06 17:51:00,
2013-03-06 09:56:00,57.4,48.1,30.08,NNW,343,0.0,0.0,71,0.00,OVC,,0.01,WeatherDisplay:10.37,2013-03-06 17:56:00,
2013-03-06 10:01:00,58.1,48.0,30.08,NNW,342,0.0,0.0,69,0.00,OVC,,0.01,WeatherDisplay:10.37,2013-03-06 18:01:00,
2013-03-06 10:06:00,58.9,48.0,30.08,NNW,345,1.2,0.0,67,0.00,OVC,,0.01,WeatherDisplay:10.37,2013-03-06 18:06:00,
2013-03-06 10:11:00,59.6,47.0,30.08,SSW,212,2.3,2.3,63,0.00,OVC,,0.01,WeatherDisplay:10.37,2013-03-06 18:11:00,
2013-03-06 10:16:00,59.6,47.8,30.07,SSW,198,2.3,2.3,65,0.00,OVC,,0.01,WeatherDisplay:10.37,2013-03-06 18:16:00,
2013-03-06 10:21:00,59.7,47.5,30.08,SW,224,1.2,1.2,64,0.00,OVC,,0.01,WeatherDisplay:10.37,2013-03-06 18:21:00,
2013-03-06 10:26:00,60.0,48.6,30.07,SSW,194,0.0,0.0,66,0.00,OVC,,0.01,WeatherDisplay:10.37,2013-03-06 18:26:00,
2013-03-06 10:31:00,60.5,48.3,30.07,SSW,198,1.0,0.0,64,0.00,OVC,,0.01,WeatherDisplay:10.37,2013-03-06 18:31:00,
2013-03-06 10:36:00,60.9,47.8,30.08,West,266,1.2,1.2,62,0.00,OVC,,0.01,WeatherDisplay:10.37,2013-03-06 18:36:00,
2013-03-06 10:41:00,61.4,47.8,30.08,West,259,0.0,0.0,61,0.00,OVC,,0.01,WeatherDisplay:10.37,2013-03-06 18:41:00,
2013-03-06 10:46:00,61.8,47.3,30.08,NNW,328,3.5,3.5,59,0.00,OVC,,0.01,WeatherDisplay:10.37,2013-03-06 18:46:00,
2013-03-06 10:51:00,61.7,47.7,30.08,NNW,330,3.5,3.5,60,0.00,OVC,,0.01,WeatherDisplay:10.37,2013-03-06 18:51:00,
2013-03-06 10:56:00,61.7,47.2,30.08,NW,315,2.3,2.3,59,0.00,OVC,,0.01,WeatherDisplay:10.37,2013-03-06 18:56:00,
2013-03-06 11:01:00,61.8,47.3,30.08,NNW,340,3.5,3.5,59,0.00,BKN,,0.01,WeatherDisplay:10.37,2013-03-06 19:01:00,
2013-03-06 11:06:00,61.4,46.9,30.08,WNW,300,3.5,3.5,59,0.00,BKN,,0.01,WeatherDisplay:10.37,2013-03-06 19:06:00,
2013-03-06 11:11:00,61.4,47.8,30.08,NW,316,3.5,3.5,61,0.00,BKN,,0.01,WeatherDisplay:10.37,2013-03-06 19:11:00,
2013-03-06 11:16:00,61.5,47.9,30.08,North,349,3.5,3.5,61,0.00,BKN,,0.01,WeatherDisplay:10.37,2013-03-06 19:16:00,
2013-03-06 11:21:00,61.5,48.8,30.08,WNW,284,1.2,1.2,63,0.00,BKN,,0.01,WeatherDisplay:10.37,2013-03-06 19:21:00,
2013-03-06 11:26:00,62.0,49.3,30.07,SSW,205,4.6,4.6,63,0.00,BKN,,0.01,WeatherDisplay:10.37,2013-03-06 19:26:00,
2013-03-06 11:31:00,62.5,49.3,30.07,North,357,3.5,3.5,62,0.00,BKN,,0.01,WeatherDisplay:10.37,2013-03-06 19:31:00,
2013-03-06 11:36:00,62.8,48.7,30.07,NNW,340,3.5,3.5,60,0.00,BKN,,0.01,WeatherDisplay:10.37,2013-03-06 19:36:00,
2013-03-06 11:41:00,63.2,48.6,30.07,WNW,285,2.3,2.3,59,0.00,BKN,,0.01,WeatherDisplay:10.37,2013-03-06 19:41:00,
2013-03-06 11:46:00,63.9,47.9,30.07,WSW,238,1.2,1.2,56,0.00,BKN,,0.01,WeatherDisplay:10.37,2013-03-06 19:46:00,
2013-03-06 11:51:00,64.3,46.3,30.07,NNE,12,1.2,1.2,52,0.00,BKN,,0.01,WeatherDisplay:10.37,2013-03-06 19:51:00,
2013-03-06 11:56:00,64.3,46.8,30.07,WSW,257,1.2,1.2,53,0.00,BKN,,0.01,WeatherDisplay:10.37,2013-03-06 19:56:00,
2013-03-06 12:01:00,64.7,46.7,30.07,WNW,303,3.5,3.5,52,0.00,OVC,,0.01,WeatherDisplay:10.37,2013-03-06 20:01:00,
2013-03-06 12:06:00,64.6,46.6,30.07,NE,39,3.5,3.5,52,0.00,OVC,,0.01,WeatherDisplay:10.37,2013-03-06 20:06:00,
2013-03-06 12:11:00,64.5,45.4,30.06,NE,53,3.5,3.5,50,0.00,OVC,,0.01,WeatherDisplay:10.37,2013-03-06 20:11:00,
2013-03-06 12:16:00,64.9,45.3,30.07,West,260,3.5,3.5,49,0.00,OVC,,0.01,WeatherDisplay:10.37,2013-03-06 20:16:00,
2013-03-06 12:21:00,65.3,46.2,30.06,NNW,330,2.3,2.3,50,0.00,OVC,,0.01,WeatherDisplay:10.37,2013-03-06 20:21:00,
2013-03-06 12:26:00,65.8,46.1,30.06,WSW,255,5.8,5.8,49,0.00,OVC,,0.01,WeatherDisplay:10.37,2013-03-06 20:26:00,
2013-03-06 12:31:00,65.7,45.5,30.05,ESE,123,1.2,1.2,48,0.00,BKN,,0.01,WeatherDisplay:10.37,2013-03-06 20:31:00,
2013-03-06 12:36:00,66.3,46.0,30.05,SSW,201,1.2,1.2,48,0.00,BKN,,0.01,WeatherDisplay:10.37,2013-03-06 20:36:00,
2013-03-06 12:41:00,66.7,45.8,30.05,NNW,345,2.3,2.3,47,0.00,BKN,,0.01,WeatherDisplay:10.37,2013-03-06 20:41:00,
2013-03-06 12:46:00,66.3,44.9,30.05,NNW,328,4.6,4.6,46,0.00,BKN,,0.01,WeatherDisplay:10.37,2013-03-06 20:46:00,
2013-03-06 12:51:00,65.3,44.5,30.05,WSW,249,8.1,8.1,47,0.00,SCT,,0.01,WeatherDisplay:10.37,2013-03-06 20:51:00,
2013-03-06 12:56:00,64.9,44.7,30.04,NNW,345,5.8,5.8,48,0.00,SCT,,0.01,WeatherDisplay:10.37,2013-03-06 20:56:00,
2013-03-06 13:01:00,64.6,44.5,30.04,NW,316,3.5,3.5,48,0.00,SCT,,0.01,WeatherDisplay:10.37,2013-03-06 21:01:00,
2013-03-06 13:06:00,64.7,45.1,30.04,NNW,328,2.3,2.3,49,0.00,SCT,,0.01,WeatherDisplay:10.37,2013-03-06 21:06:00,
2013-03-06 13:11:00,65.0,44.8,30.03,West,279,3.5,3.5,48,0.00,SCT,,0.01,WeatherDisplay:10.37,2013-03-06 21:11:00,
2013-03-06 13:16:00,65.0,44.3,30.03,South,174,3.5,3.5,47,0.00,BKN,,0.01,WeatherDisplay:10.37,2013-03-06 21:16:00,
2013-03-06 13:21:00,65.2,44.5,30.03,WSW,249,3.5,3.5,47,0.00,BKN,,0.01,WeatherDisplay:10.37,2013-03-06 21:21:00,
2013-03-06 13:26:00,65.1,44.9,30.03,West,264,4.6,4.6,48,0.00,BKN,,0.01,WeatherDisplay:10.37,2013-03-06 21:26:00,
2013-03-06 13:31:00,64.5,44.4,30.03,SW,218,4.6,4.6,48,0.00,OVC,,0.01,WeatherDisplay:10.37,2013-03-06 21:31:00,
2013-03-06 13:36:00,64.1,48.1,30.03,WSW,249,7.0,7.0,56,0.00,OVC,,0.01,WeatherDisplay:10.37,2013-03-06 21:36:00,
2013-03-06 13:41:00,62.8,48.3,30.03,NNE,12,3.5,3.5,59,0.00,OVC,,0.01,WeatherDisplay:10.37,2013-03-06 21:41:00,
2013-03-06 13:46:00,61.9,48.7,30.03,WNW,302,2.3,2.3,62,0.00,OVC,,0.01,WeatherDisplay:10.37,2013-03-06 21:46:00,
2013-03-06 13:51:00,61.6,48.4,30.03,WNW,291,2.3,2.3,62,0.00,OVC,,0.01,WeatherDisplay:10.37,2013-03-06 21:51:00,
2013-03-06 13:56:00,61.3,48.2,30.03,ESE,120,5.8,5.8,62,0.00,OVC,,0.01,WeatherDisplay:10.37,2013-03-06 21:56:00,
2013-03-06 14:01:00,60.8,48.1,30.03,West,262,1.2,1.2,63,0.00,OVC,,0.01,WeatherDisplay:10.37,2013-03-06 22:01:00,
2013-03-06 14:06:00,60.3,48.1,30.03,ENE,68,3.5,3.5,64,0.00,OVC,,0.01,WeatherDisplay:10.37,2013-03-06 22:06:00,
2013-03-06 14:11:00,60.1,47.9,30.02,NW,316,1.2,1.2,64,0.00,OVC,,0.01,WeatherDisplay:10.37,2013-03-06 22:11:00,
2013-03-06 14:16:00,60.2,48.0,30.02,SE,132,2.3,2.3,64,0.00,OVC,,0.01,WeatherDisplay:10.37,2013-03-06 22:16:00,
2013-03-06 14:21:00,60.6,47.9,30.02,SSW,198,2.3,2.3,63,0.00,OVC,,0.01,WeatherDisplay:10.37,2013-03-06 22:21:00,
2013-03-06 14:26:00,60.9,47.8,30.02,SE,145,3.5,3.5,62,0.00,OVC,,0.01,WeatherDisplay:10.37,2013-03-06 22:26:00,
2013-03-06 14:31:00,61.1,48.0,30.01,South,177,1.2,1.2,62,0.00,OVC,,0.01,WeatherDisplay:10.37,2013-03-06 22:31:00,
2013-03-06 14:36:00,61.7,48.1,30.01,ESE,122,1.2,1.2,61,0.00,OVC,,0.01,WeatherDisplay:10.37,2013-03-06 22:36:00,
2013-03-06 14:41:00,62.3,47.8,30.01,ENE,70,2.3,2.3,59,0.00,OVC,,0.01,WeatherDisplay:10.37,2013-03-06 22:41:00,
2013-03-06 14:46:00,62.5,47.5,30.01,SSE,155,2.3,2.3,58,0.00,BKN,,0.01,WeatherDisplay:10.37,2013-03-06 22:46:00,
2013-03-06 14:51:00,62.7,47.2,30.01,WNW,286,2.0,2.0,57,0.00,BKN,,0.01,WeatherDisplay:10.37,2013-03-06 22:51:00,
2013-03-06 14:56:00,63.0,48.0,30.01,SSW,212,2.3,2.3,58,0.00,BKN,,0.01,WeatherDisplay:10.37,2013-03-06 22:56:00,
2013-03-06 15:01:00,63.9,47.9,30.00,NW,311,3.5,3.5,56,0.00,BKN,,0.01,WeatherDisplay:10.37,2013-03-06 23:01:00,
2013-03-06 15:06:00,64.5,48.0,30.00,WNW,285,2.0,2.0,55,0.00,BKN,,0.01,WeatherDisplay:10.37,2013-03-06 23:06:00,
2013-03-06 15:11:00,64.8,48.2,30.00,SSW,204,2.3,2.3,55,0.00,BKN,,0.01,WeatherDisplay:10.37,2013-03-06 23:11:00,
2013-03-06 15:16:00,65.2,48.1,30.00,SSE,159,2.3,2.3,54,0.00,BKN,,0.01,WeatherDisplay:10.37,2013-03-06 23:16:00,
2013-03-06 15:21:00,65.4,48.3,30.00,SW,226,3.5,3.5,54,0.00,BKN,,0.01,WeatherDisplay:10.37,2013-03-06 23:21:00,
2013-03-06 15:26:00,65.6,47.5,30.00,SW,228,3.5,3.5,52,0.00,BKN,,0.01,WeatherDisplay:10.37,2013-03-06 23:26:00,
2013-03-06 15:31:00,65.1,47.5,30.00,SE,136,2.3,2.3,53,0.00,BKN,,0.01,WeatherDisplay:10.37,2013-03-06 23:31:00,
2013-03-06 15:36:00,64.3,46.8,29.99,SSE,163,2.3,2.3,53,0.00,BKN,,0.01,WeatherDisplay:10.37,2013-03-06 23:36:00,
2013-03-06 15:41:00,63.7,47.2,29.99,South,186,2.3,2.3,55,0.00,BKN,,0.01,WeatherDisplay:10.37,2013-03-06 23:41:00,
2013-03-06 15:46:00,63.7,47.7,29.99,South,174,3.5,3.5,56,0.00,OVC,,0.01,WeatherDisplay:10.37,2013-03-06 23:46:00,
2013-03-06 15:51:00,63.7,46.7,29.99,SE,145,1.2,1.2,54,0.00,OVC,,0.01,WeatherDisplay:10.37,2013-03-06 23:51:00,
2013-03-06 15:56:00,63.5,47.0,29.99,NNW,343,2.3,2.3,55,0.00,OVC,,0.01,WeatherDisplay:10.37,2013-03-06 23:56:00,
2013-03-06 16:01:00,63.3,47.3,29.99,West,272,1.2,1.2,56,0.00,OVC,,0.01,WeatherDisplay:10.37,2013-03-07 00:01:00,
2013-03-06 16:06:00,62.9,47.0,29.99,NNW,333,1.2,1.2,56,0.00,OVC,,0.01,WeatherDisplay:10.37,2013-03-07 00:06:00,
2013-03-06 16:11:00,62.7,46.8,29.99,WNW,283,2.3,2.3,56,0.00,OVC,,0.01,WeatherDisplay:10.37,2013-03-07 00:11:00,
2013-03-06 16:16:00,62.6,46.7,29.99,SE,139,2.3,2.3,56,0.00,OVC,,0.01,WeatherDisplay:10.37,2013-03-07 00:16:00,
2013-03-06 16:21:00,62.2,46.8,29.99,SSW,207,1.2,1.2,57,0.00,OVC,,0.01,WeatherDisplay:10.37,2013-03-07 00:21:00,
2013-03-06 16:26:00,61.7,47.2,29.99,SSW,210,1.2,1.2,59,0.00,OVC,,0.01,WeatherDisplay:10.37,2013-03-07 00:26:00,
2013-03-06 16:31:00,61.6,47.6,29.99,WNW,288,2.3,2.3,60,0.00,OVC,,0.01,WeatherDisplay:10.37,2013-03-07 00:31:00,
2013-03-06 16:36:00,61.4,47.4,29.99,NW,305,1.2,1.2,60,0.00,OVC,,0.01,WeatherDisplay:10.37,2013-03-07 00:36:00,
2013-03-06 16:41:00,61.3,48.2,29.99,West,275,2.3,2.3,62,0.00,OVC,,0.01,WeatherDisplay:10.37,2013-03-07 00:41:00,
2013-03-06 16:46:00,61.3,48.2,29.99,NW,314,2.3,2.3,62,0.00,OVC,,0.01,WeatherDisplay:10.37,2013-03-07 00:46:00,
2013-03-06 16:51:00,61.2,48.1,29.98,NW,313,2.3,2.3,62,0.00,OVC,,0.01,WeatherDisplay:10.37,2013-03-07 00:51:00,
2013-03-06 16:56:00,61.0,47.9,29.98,ESE,109,2.3,2.3,62,0.00,OVC,,0.01,WeatherDisplay:10.37,2013-03-07 00:56:00,
2013-03-06 17:01:00,60.8,47.7,29.98,WNW,302,1.2,1.2,62,0.00,OVC,,0.01,WeatherDisplay:10.37,2013-03-07 01:01:00,
2013-03-06 17:06:00,60.7,48.0,29.98,WNW,291,1.2,1.2,63,0.00,OVC,,0.01,WeatherDisplay:10.37,2013-03-07 01:06:00,
2013-03-06 17:11:00,60.5,47.4,29.98,SE,138,2.3,2.3,62,0.00,OVC,,0.01,WeatherDisplay:10.37,2013-03-07 01:11:00,
2013-03-06 17:16:00,60.2,47.6,29.98,SSW,210,0.0,0.0,63,0.00,BKN,,0.01,WeatherDisplay:10.37,2013-03-07 01:16:00,
2013-03-06 17:21:00,59.9,47.7,29.98,NW,322,0.0,0.0,64,0.00,BKN,,0.01,WeatherDisplay:10.37,2013-03-07 01:21:00,
2013-03-06 17:26:00,59.7,47.5,29.98,NW,322,0.0,0.0,64,0.00,BKN,,0.01,WeatherDisplay:10.37,2013-03-07 01:26:00,
2013-03-06 17:31:00,59.4,47.2,29.98,NNW,328,1.2,1.2,64,0.00,BKN,,0.01,WeatherDisplay:10.37,2013-03-07 01:31:00,
2013-03-06 17:36:00,59.2,47.0,29.98,NW,325,0.0,0.0,64,0.00,BKN,,0.01,WeatherDisplay:10.37,2013-03-07 01:36:00,
2013-03-06 17:41:00,59.0,46.8,29.98,NNW,328,0.0,0.0,64,0.00,BKN,,0.01,WeatherDisplay:10.37,2013-03-07 01:41:00,
2013-03-06 17:46:00,58.7,47.0,29.99,NNW,328,0.0,0.0,65,0.00,BKN,,0.01,WeatherDisplay:10.37,2013-03-07 01:46:00,
2013-03-06 17:51:00,58.4,47.1,29.99,NNW,328,0.0,0.0,66,0.00,BKN,,0.01,WeatherDisplay:10.37,2013-03-07 01:51:00,
2013-03-06 17:56:00,58.2,46.9,29.99,NNW,328,0.0,0.0,66,0.00,BKN,,0.01,WeatherDisplay:10.37,2013-03-07 01:56:00,
2013-03-06 18:01:00,57.9,46.6,29.99,NNW,328,0.0,0.0,66,0.00,BKN,,0.01,WeatherDisplay:10.37,2013-03-07 02:01:00,
2013-03-06 18:06:00,57.7,46.8,29.99,NNW,328,0.0,0.0,67,0.00,BKN,,0.01,WeatherDisplay:10.37,2013-03-07 02:06:00,
2013-03-06 18:11:00,57.5,47.0,29.99,NNW,328,0.0,0.0,68,0.00,BKN,,0.01,WeatherDisplay:10.37,2013-03-07 02:11:00,
2013-03-06 18:16:00,57.5,47.0,29.99,NNW,328,0.0,0.0,68,0.00,BKN,,0.01,WeatherDisplay:10.37,2013-03-07 02:16:00,
2013-03-06 18:21:00,57.4,46.9,29.99,NNW,327,0.0,0.0,68,0.00,BKN,,0.01,WeatherDisplay:10.37,2013-03-07 02:21:00,
2013-03-06 18:26:00,57.2,46.7,29.99,NNW,328,0.0,0.0,68,0.00,BKN,,0.01,WeatherDisplay:10.37,2013-03-07 02:26:00,
2013-03-06 18:31:00,57.0,46.9,29.99,NNW,328,0.0,0.0,69,0.00,BKN,,0.01,WeatherDisplay:10.37,2013-03-07 02:31:00,
2013-03-06 18:36:00,56.7,46.6,29.99,NNW,327,0.0,0.0,69,0.00,BKN,,0.01,WeatherDisplay:10.37,2013-03-07 02:36:00,
2013-03-06 18:41:00,56.4,46.7,29.99,NNW,328,0.0,0.0,70,0.00,BKN,,0.01,WeatherDisplay:10.37,2013-03-07 02:41:00,
2013-03-06 18:46:00,56.1,46.4,29.98,NNW,328,0.0,0.0,70,0.00,BKN,,0.01,WeatherDisplay:10.37,2013-03-07 02:46:00,
2013-03-06 18:51:00,55.9,46.6,29.98,NNW,328,0.0,0.0,71,0.00,BKN,,0.01,WeatherDisplay:10.37,2013-03-07 02:51:00,
2013-03-06 18:56:00,55.6,46.3,29.98,NNW,328,0.0,0.0,71,0.00,BKN,,0.01,WeatherDisplay:10.37,2013-03-07 02:56:00,
2013-03-06 19:01:00,55.2,46.3,29.98,NNW,328,0.0,0.0,72,0.00,OVC,,0.01,WeatherDisplay:10.37,2013-03-07 03:01:00,
2013-03-06 19:06:00,54.8,46.3,29.99,NNW,328,0.0,0.0,73,0.00,OVC,,0.01,WeatherDisplay:10.37,2013-03-07 03:06:00,
2013-03-06 19:11:00,54.4,46.3,29.99,NNW,328,0.0,0.0,74,0.00,OVC,,0.01,WeatherDisplay:10.37,2013-03-07 03:11:00,
2013-03-06 19:16:00,54.0,46.3,29.98,NNW,328,0.0,0.0,75,0.00,OVC,,0.01,WeatherDisplay:10.37,2013-03-07 03:16:00,
2013-03-06 19:21:00,53.6,46.2,29.98,NNW,328,0.0,0.0,76,0.00,OVC,,0.01,WeatherDisplay:10.37,2013-03-07 03:21:00,
2013-03-06 19:26:00,53.2,45.8,29.98,NNW,327,0.0,0.0,76,0.00,OVC,,0.01,WeatherDisplay:10.37,2013-03-07 03:26:00,
2013-03-06 19:31:00,52.8,45.8,29.98,NNW,328,0.0,0.0,77,0.00,BKN,,0.01,WeatherDisplay:10.37,2013-03-07 03:31:00,
2013-03-06 19:36:00,52.5,46.2,29.98,NNW,328,0.0,0.0,79,0.00,BKN,,0.01,WeatherDisplay:10.37,2013-03-07 03:36:00,
2013-03-06 19:41:00,52.4,46.1,29.98,NNW,328,0.0,0.0,79,0.00,BKN,,0.01,WeatherDisplay:10.37,2013-03-07 03:41:00,
2013-03-06 19:46:00,52.3,46.3,29.98,NNW,328,0.0,0.0,80,0.00,BKN,,0.01,WeatherDisplay:10.37,2013-03-07 03:46:00,
2013-03-06 19:51:00,52.1,46.1,29.98,NNW,328,0.0,0.0,80,0.00,BKN,,0.01,WeatherDisplay:10.37,2013-03-07 03:51:00,
2013-03-06 19:56:00,51.9,45.9,29.98,NNW,328,0.0,0.0,80,0.00,BKN,,0.01,WeatherDisplay:10.37,2013-03-07 03:56:00,
2013-03-06 20:01:00,51.9,45.9,29.98,NNW,328,0.0,0.0,80,0.00,BKN,,0.01,WeatherDisplay:10.37,2013-03-07 04:01:00,
2013-03-06 20:06:00,51.7,46.1,29.98,NNW,328,0.0,0.0,81,0.00,BKN,,0.01,WeatherDisplay:10.37,2013-03-07 04:06:00,
2013-03-06 20:11:00,51.6,46.0,29.98,NNW,328,0.0,0.0,81,0.00,BKN,,0.01,WeatherDisplay:10.37,2013-03-07 04:11:00,
2013-03-06 20:16:00,51.4,45.8,29.97,NNW,328,0.0,0.0,81,0.00,BKN,,0.01,WeatherDisplay:10.37,2013-03-07 04:16:00,
2013-03-06 20:21:00,51.1,45.5,29.98,NNW,328,0.0,0.0,81,0.00,BKN,,0.01,WeatherDisplay:10.37,2013-03-07 04:21:00,
2013-03-06 20:26:00,50.8,45.2,29.98,NNW,327,0.0,0.0,81,0.00,BKN,,0.01,WeatherDisplay:10.37,2013-03-07 04:26:00,
2013-03-06 20:31:00,50.4,45.1,29.98,NNW,328,0.0,0.0,82,0.00,FEW,,0.01,WeatherDisplay:10.37,2013-03-07 04:31:00,
2013-03-06 20:36:00,50.1,45.1,29.97,NNW,328,0.0,0.0,83,0.00,FEW,,0.01,WeatherDisplay:10.37,2013-03-07 04:36:00,
2013-03-06 20:41:00,50.0,45.4,29.97,NNW,328,0.0,0.0,84,0.00,FEW,,0.01,WeatherDisplay:10.37,2013-03-07 04:41:00,
2013-03-06 20:46:00,49.8,45.5,29.98,NNW,328,0.0,0.0,85,0.00,CLR,,0.01,WeatherDisplay:10.37,2013-03-07 04:46:00,
2013-03-06 20:51:00,50.1,45.8,29.98,NE,53,1.2,0.0,85,0.00,CLR,,0.01,WeatherDisplay:10.37,2013-03-07 04:51:00,
2013-03-06 20:56:00,50.5,45.8,29.98,NE,52,1.2,0.0,84,0.00,CLR,,0.01,WeatherDisplay:10.37,2013-03-07 04:56:00,
2013-03-06 21:00:00,50.6,45.6,29.98,NE,53,1.2,0.0,83,0.00,CLR,,0.01,WeatherDisplay:10.37,2013-03-07 05:00:00,
2013-03-06 21:05:00,50.6,45.6,29.98,NE,53,0.0,0.0,83,0.00,CLR,,0.01,WeatherDisplay:10.37,2013-03-07 05:05:00,
2013-03-06 21:10:00,50.4,45.4,29.98,NE,52,0.0,0.0,83,0.00,CLR,,0.01,WeatherDisplay:10.37,2013-03-07 05:10:00,
2013-03-06 21:15:00,50.4,45.7,29.98,NE,52,0.0,0.0,84,0.00,CLR,,0.01,WeatherDisplay:10.37,2013-03-07 05:15:00,
2013-03-06 21:20:00,50.3,45.3,29.98,NE,52,0.0,0.0,83,0.00,CLR,,0.01,WeatherDisplay:10.37,2013-03-07 05:20:00,
2013-03-06 21:25:00,50.0,45.4,29.98,NE,51,0.0,0.0,84,0.00,CLR,,0.01,WeatherDisplay:10.37,2013-03-07 05:25:00,
2013-03-06 21:30:00,49.8,45.2,29.98,NE,51,0.0,0.0,84,0.00,CLR,,0.01,WeatherDisplay:10.37,2013-03-07 05:30:00,
2013-03-06 21:35:00,49.8,45.2,29.98,NE,51,0.0,0.0,84,0.00,CLR,,0.01,WeatherDisplay:10.37,2013-03-07 05:35:00,
2013-03-06 21:40:00,49.7,45.1,29.98,NE,51,0.0,0.0,84,0.00,CLR,,0.01,WeatherDisplay:10.37,2013-03-07 05:40:00,
2013-03-06 21:45:00,49.5,44.9,29.98,NE,50,0.0,0.0,84,0.00,CLR,,0.01,WeatherDisplay:10.37,2013-03-07 05:45:00,
2013-03-06 21:50:00,49.3,45.0,29.97,NE,51,0.0,0.0,85,0.00,CLR,,0.01,WeatherDisplay:10.37,2013-03-07 05:50:00,
2013-03-06 21:55:00,49.1,44.8,29.97,NE,50,0.0,0.0,85,0.00,CLR,,0.01,WeatherDisplay:10.37,2013-03-07 05:55:00,
2013-03-06 22:00:00,48.9,44.6,29.97,NE,50,0.0,0.0,85,0.00,CLR,,0.01,WeatherDisplay:10.37,2013-03-07 06:00:00,
2013-03-06 22:05:00,48.7,44.7,29.97,NE,50,0.0,0.0,86,0.00,CLR,,0.01,WeatherDisplay:10.37,2013-03-07 06:05:00,
2013-03-06 22:10:00,48.5,44.5,29.97,NE,51,0.0,0.0,86,0.00,CLR,,0.01,WeatherDisplay:10.37,2013-03-07 06:10:00,
2013-03-06 22:15:00,48.5,44.8,29.97,NE,51,0.0,0.0,87,0.00,CLR,,0.01,WeatherDisplay:10.37,2013-03-07 06:15:00,
2013-03-06 22:20:00,48.4,44.7,29.97,NE,50,0.0,0.0,87,0.00,CLR,,0.01,WeatherDisplay:10.37,2013-03-07 06:20:00,
2013-03-06 22:25:00,48.5,44.8,29.97,NE,51,0.0,0.0,87,0.00,CLR,,0.01,WeatherDisplay:10.37,2013-03-07 06:25:00,
2013-03-06 22:30:00,48.8,45.1,29.97,ESE,109,1.2,1.2,87,0.00,CLR,,0.01,WeatherDisplay:10.37,2013-03-07 06:30:00,
2013-03-06 22:35:00,49.0,45.0,29.97,SE,128,0.0,0.0,86,0.00,CLR,,0.01,WeatherDisplay:10.37,2013-03-07 06:35:00,
2013-03-06 22:40:00,49.1,44.8,29.97,SE,129,0.0,0.0,85,0.00,CLR,,0.01,WeatherDisplay:10.37,2013-03-07 06:40:00,
2013-03-06 22:45:00,49.1,44.8,29.97,South,191,0.0,0.0,85,0.00,CLR,,0.01,WeatherDisplay:10.37,2013-03-07 06:45:00,
2013-03-06 22:50:00,49.1,44.8,29.97,South,190,0.0,0.0,85,0.00,CLR,,0.01,WeatherDisplay:10.37,2013-03-07 06:50:00,
2013-03-06 22:55:00,49.1,44.8,29.97,SE,126,1.2,1.2,85,0.00,CLR,,0.01,WeatherDisplay:10.37,2013-03-07 06:55:00,
2013-03-06 23:00:00,49.2,44.9,29.97,SE,125,0.0,0.0,85,0.00,CLR,,0.01,WeatherDisplay:10.37,2013-03-07 07:00:00,
2013-03-06 23:05:00,49.2,44.6,29.97,SE,126,1.2,1.2,84,0.00,CLR,,0.01,WeatherDisplay:10.37,2013-03-07 07:05:00,
2013-03-06 23:10:00,49.2,44.6,29.97,SE,128,0.0,0.0,84,0.00,CLR,,0.01,WeatherDisplay:10.37,2013-03-07 07:10:00,
2013-03-06 23:15:00,49.1,44.5,29.97,SE,130,0.0,0.0,84,0.00,CLR,,0.01,WeatherDisplay:10.37,2013-03-07 07:15:00,
2013-03-06 23:20:00,49.1,44.5,29.97,SE,130,0.0,0.0,84,0.00,CLR,,0.01,WeatherDisplay:10.37,2013-03-07 07:20:00,
2013-03-06 23:25:00,49.0,44.4,29.97,SE,128,1.2,0.0,84,0.00,CLR,,0.01,WeatherDisplay:10.37,2013-03-07 07:25:00,
2013-03-06 23:30:00,49.0,44.4,29.97,SSE,148,0.0,0.0,84,0.00,CLR,,0.01,WeatherDisplay:10.37,2013-03-07 07:30:00,
2013-03-06 23:35:00,48.8,44.2,29.97,SE,126,0.0,0.0,84,0.00,CLR,,0.01,WeatherDisplay:10.37,2013-03-07 07:35:00,
2013-03-06 23:40:00,48.7,44.1,29.97,SE,125,0.0,0.0,84,0.00,CLR,,0.01,WeatherDisplay:10.37,2013-03-07 07:40:00,
2013-03-06 23:46:00,48.5,44.2,29.97,SE,126,0.0,0.0,85,0.00,CLR,,0.01,WeatherDisplay:10.37,2013-03-07 07:46:00,
2013-03-06 23:51:00,48.4,44.1,29.97,SE,126,0.0,0.0,85,0.00,CLR,,0.01,WeatherDisplay:10.37,2013-03-07 07:51:00,
2013-03-06 23:56:00,48.2,43.9,29.97,SE,125,0.0,0.0,85,0.00,CLR,,0.01,WeatherDisplay:10.37,2013-03-07 07:56:00,